CZ-6A DEB, 58432

Orbit data source: Space-Track

CZ-6A DEB, 58432 is space debris in SSO originally from a launch on Fri, 11 Nov 2022 UTC launched from the Taiyaun Space Center, China (TSC). Debris objects in space refer to the collection of defunct objects orbiting the Earth. Examples of debris include non-operational satellites, rocket bodies, and fragments generated from explosions, collisions, or faulty payload assembly.

Loading next visibility...
Identifier
58432, 2022-151AJA
Orbit
SSO
Country
Flag of CNCN / PRC
Related business
Manufacturer
SAST
Mission
Spacecraft
Bus & Motor
Unknown
Mass
Unknown
Launch date (UTC)
2022-11-11 (4 years ago)
Launch vehicle
Unknown
Launch site
Taiyaun Space Center, China (TSC)
Object type
Payload
Rocket body
Debris
Shape & HBR
Unknown shape, 0.1 m
Radar Cross Section
Small (<0.1 m²)

Expand to show TLE details & history
Last TLE update: 3 days ago

TLE from 3 days ago
0 CZ-6A DEB
1 58432U 22151AJA 26234.30335405  .00000636  00000-0  30063-3 0  9993
2 58432  98.7879 258.5256 0013466 151.4431 208.7487 14.23189041170696
Epoch: 2026-08-22T07:16Z
TLE epoch observation values (Epoch: 2026-08-22T07:16:49.789Z)
Latitude
-0.00007°
Longitude
178.70246°
Altitude
826.001 km
Speed
7.436 km/s
True Right ascension
17h 14m 06s
True Declination
0° 00' 00"
Sunlit
Object was in daylight at epoch
Visualization orbit readout
Latitude
Unknown
Longitude
Unknown
Altitude
Unknown
Speed
Unknown
Apparent Right ascension
Unknown
Apparent Declination
Unknown
Sunlit
N/A
Visualization observer readout
Local Sidereal Time
13:49:13
Azimuth
Unknown
Elevation
Unknown
Doppler factor
Unknown
Orbital elements
Apogee altitude
821.428 km
Perigee altitude
802.064 km
Semi-major axis
7,189.883 km
Eccentricity
0.00135
Inclination
98.7879°
RAAN
258.5256°
Arg. of periapsis
151.4431°
True anomaly
208.67459°
Mean anomaly
208.7487°
Eccentric anomaly
208.71163°
Mean motion
3.56009 °/min
Orbital period
101.12 mins
BSTAR
0.00030063
Loading maneuver chart data...
Computing Atmospheric mass density...
Loading historical data...
Loading historical data...
Loading historical data...
Loading historical data...
Loading historical data...
Loading historical data...
Loading historical data...

Documentation

Showing up to 5 results
|